Вернуться в каталог

IRIDE-MS1-EAG2-10

АктивенВоенныеSSO
NORAD 68451·PAYLOAD·🇮🇹 Italy

Запущен Mar 30, 2026 с Vandenberg Space Force Base

Loading…

Ближайшие Пролёты (ближайшие 24 часа)

TLE

СвежийSource: Space-Track

Эпоха: Sep 14, 2026, 08:40 UTC

1 68451U 26067AM  26257.36139952  .00006210  00000-0  29232-3 0  9995
2 68451  97.4601 214.6877 0003646  80.8685 279.2963 15.19895478 25486

Отслеживайте IRIDE-MS1-EAG2-10 в реальном времени с AllMySat

Download on the App Store